DAL3996 KATL-KFLL

Flight info

Callsign DAL3996
Flight time N/A
Altitude 34000
Route SMLTZ3 WALET ZPLEN TEEKY4
Aircraft A35K/H-ICAOFAA/L

Departure

Time 2026-05-03 22:28
Airport Hartsfield Jackson Atlanta International Airport (KATL)

Arrival

Time N/A
Airport Fort Lauderdale Hollywood International Airport (KFLL)
Time Latitude Longitude Altitude Speed Heading
2026-05-03 22:13 33.63965 -84.43856 1028 ft 0 kts 272°
2026-05-03 22:18 33.63964 -84.43845 1028 ft 2 kts 272°
2026-05-03 22:19 33.63963 -84.43809 1028 ft 5 kts 273°
2026-05-03 22:19 33.63965 -84.43776 1028 ft 3 kts 245°
2026-05-03 22:19 33.63972 -84.43758 1028 ft 0 kts 247°
2026-05-03 22:19 33.63957 -84.43773 1028 ft 5 kts 207°
2026-05-03 22:20 33.63918 -84.43782 1028 ft 5 kts 184°
2026-05-03 22:20 33.63879 -84.43782 1028 ft 5 kts 179°
2026-05-03 22:20 33.63840 -84.43784 1028 ft 5 kts 184°
2026-05-03 22:20 33.63802 -84.43786 1028 ft 5 kts 182°
2026-05-03 22:21 33.63773 -84.43787 1028 ft 0 kts 182°
2026-05-03 22:21 33.63772 -84.43787 1028 ft 0 kts 182°
2026-05-03 22:22 33.63771 -84.43787 1028 ft 0 kts 182°
2026-05-03 22:22 33.63736 -84.43789 1028 ft 7 kts 183°
2026-05-03 22:22 33.63673 -84.43760 1028 ft 11 kts 128°
2026-05-03 22:23 33.63664 -84.43639 1028 ft 18 kts 89°
2026-05-03 22:23 33.63663 -84.43458 1028 ft 23 kts 91°
2026-05-03 22:23 33.63665 -84.43263 1028 ft 23 kts 87°
2026-05-03 22:23 33.63665 -84.43070 1028 ft 22 kts 91°
2026-05-03 22:24 33.63667 -84.42892 1028 ft 20 kts 91°
2026-05-03 22:24 33.63658 -84.42719 1028 ft 20 kts 94°
2026-05-03 22:24 33.63653 -84.42547 1028 ft 21 kts 88°
2026-05-03 22:24 33.63660 -84.42370 1028 ft 21 kts 90°
2026-05-03 22:25 33.63657 -84.42190 1026 ft 22 kts 89°
2026-05-03 22:25 33.63652 -84.41991 1025 ft 24 kts 93°
2026-05-03 22:25 33.63656 -84.41784 1025 ft 25 kts 88°
2026-05-03 22:25 33.63654 -84.41572 1026 ft 25 kts 92°
2026-05-03 22:26 33.63651 -84.41338 1019 ft 29 kts 87°
2026-05-03 22:26 33.63656 -84.41080 1013 ft 32 kts 90°
2026-05-03 22:26 33.63658 -84.40819 1009 ft 28 kts 90°
2026-05-03 22:26 33.63576 -84.40735 1009 ft 16 kts 188°
2026-05-03 22:27 33.63478 -84.40764 1009 ft 10 kts 223°
2026-05-03 22:27 33.63471 -84.41003 1010 ft 65 kts 273°
2026-05-03 22:27 33.63468 -84.41849 1016 ft 136 kts 270°
2026-05-03 22:27 33.63469 -84.43241 1019 ft 195 kts 270°
2026-05-03 22:28 33.63474 -84.45052 1130 ft 234 kts 272°
2026-05-03 22:28 33.63517 -84.46679 2912 ft 172 kts 271°
2026-05-03 22:28 33.63506 -84.47901 3881 ft 151 kts 270°
2026-05-03 22:28 33.63465 -84.49393 4028 ft 198 kts 269°
2026-05-03 22:29 33.63407 -84.50918 5145 ft 175 kts 268°
2026-05-03 22:29 33.63311 -84.52297 5874 ft 171 kts 266°
2026-05-03 22:29 33.63185 -84.53879 6147 ft 206 kts 266°
2026-05-03 22:29 33.63036 -84.55518 7259 ft 196 kts 265°
2026-05-03 22:30 33.62864 -84.57078 8170 ft 194 kts 266°
2026-05-03 22:30 33.62681 -84.58725 8763 ft 209 kts 256°
2026-05-03 22:30 33.61958 -84.60255 9388 ft 227 kts 223°
2026-05-03 22:30 33.60489 -84.61036 10046 ft 245 kts 185°
2026-05-03 22:31 33.58788 -84.60585 10610 ft 263 kts 149°
2026-05-03 22:31 33.57385 -84.59112 11175 ft 275 kts 136°
2026-05-03 22:31 33.56091 -84.57369 11883 ft 281 kts 138°
2026-05-03 22:31 33.54631 -84.55843 12607 ft 285 kts 147°
2026-05-03 22:32 33.52909 -84.54657 13326 ft 288 kts 160°
2026-05-03 22:32 33.51016 -84.53921 14021 ft 288 kts 172°
2026-05-03 22:32 33.49021 -84.53687 14730 ft 286 kts 185°
2026-05-03 22:32 33.47076 -84.53964 15436 ft 283 kts 196°
2026-05-03 22:33 33.45107 -84.54363 15930 ft 294 kts 185°
2026-05-03 22:33 33.43063 -84.53916 16411 ft 309 kts 158°
2026-05-03 22:33 33.41280 -84.52421 16901 ft 322 kts 136°
2026-05-03 22:33 33.40006 -84.50197 17372 ft 331 kts 112°
2026-05-03 22:34 33.39495 -84.47508 17936 ft 332 kts 101°
2026-05-03 22:34 33.39189 -84.44841 18733 ft 326 kts 104°
2026-05-03 22:34 33.38466 -84.42323 19531 ft 319 kts 120°
2026-05-03 22:34 33.37228 -84.40144 20270 ft 312 kts 135°
2026-05-03 22:35 33.35638 -84.38316 20165 ft 337 kts 144°
2026-05-03 22:35 33.33651 -84.36591 20111 ft 357 kts 152°
2026-05-03 22:35 33.31505 -84.35106 20460 ft 366 kts 156°
2026-05-03 22:35 33.29159 -84.33727 20590 ft 380 kts 160°
2026-05-03 22:36 33.26686 -84.32496 21004 ft 386 kts 163°
2026-05-03 22:36 33.24178 -84.31347 21447 ft 393 kts 163°
2026-05-03 22:36 33.21594 -84.30177 21931 ft 398 kts 163°
2026-05-03 22:36 33.18973 -84.29001 22447 ft 402 kts 164°
2026-05-03 22:37 33.16345 -84.27834 22977 ft 405 kts 165°
2026-05-03 22:37 33.13667 -84.26794 23502 ft 407 kts 166°
2026-05-03 22:37 33.11015 -84.25565 24014 ft 413 kts 160°
2026-05-03 22:37 33.08444 -84.23979 24535 ft 418 kts 154°
2026-05-03 22:38 33.05997 -84.22153 25042 ft 422 kts 152°
2026-05-03 22:38 33.03546 -84.20192 25551 ft 424 kts 151°
2026-05-03 22:38 33.01045 -84.18320 26055 ft 421 kts 157°
2026-05-03 22:38 32.98441 -84.16766 26564 ft 417 kts 163°
2026-05-03 22:39 32.95750 -84.15511 27065 ft 414 kts 167°
2026-05-03 22:39 32.93068 -84.14404 27558 ft 413 kts 168°
2026-05-03 22:39 32.90347 -84.13303 27970 ft 414 kts 168°
2026-05-03 22:39 32.87580 -84.12183 28356 ft 417 kts 169°
2026-05-03 22:40 32.84855 -84.11078 28720 ft 419 kts 169°
2026-05-03 22:40 32.82091 -84.09950 29109 ft 421 kts 169°
2026-05-03 22:40 32.79296 -84.08808 29490 ft 422 kts 169°
2026-05-03 22:40 32.76546 -84.07681 29865 ft 423 kts 169°
2026-05-03 22:41 32.73734 -84.06528 30249 ft 424 kts 169°
2026-05-03 22:41 32.70955 -84.05387 30621 ft 424 kts 170°
2026-05-03 22:41 32.68160 -84.04242 30936 ft 426 kts 170°
2026-05-03 22:41 32.65377 -84.03102 31235 ft 428 kts 170°
2026-05-03 22:42 32.62561 -84.01949 31541 ft 429 kts 170°
2026-05-03 22:42 32.59714 -84.00786 31798 ft 432 kts 170°
2026-05-03 22:42 32.56881 -83.99629 32050 ft 434 kts 171°
2026-05-03 22:42 32.54025 -83.98462 32306 ft 436 kts 171°
2026-05-03 22:43 32.51147 -83.97285 32563 ft 438 kts 171°
2026-05-03 22:43 32.48275 -83.96112 32817 ft 440 kts 171°
2026-05-03 22:43 32.45363 -83.94923 33029 ft 442 kts 171°
2026-05-03 22:43 32.42462 -83.93740 33237 ft 445 kts 171°
2026-05-03 22:44 32.39523 -83.92545 33445 ft 447 kts 171°
2026-05-03 22:44 32.36558 -83.91353 33564 ft 450 kts 172°
2026-05-03 22:44 32.33581 -83.90274 33697 ft 451 kts 173°
2026-05-03 22:44 32.30559 -83.89193 33823 ft 455 kts 173°
2026-05-03 22:45 32.27486 -83.88096 33867 ft 460 kts 173°
2026-05-03 22:45 32.21342 -83.85897 34097 ft 466 kts 173°
2026-05-03 22:45 32.18201 -83.84769 34277 ft 467 kts 173°
2026-05-03 22:46 32.15110 -83.83663 34387 ft 470 kts 173°
2026-05-03 22:46 32.11951 -83.82534 34504 ft 472 kts 173°
2026-05-03 22:46 32.08804 -83.81408 34595 ft 475 kts 173°
2026-05-03 22:47 32.02467 -83.79147 34727 ft 481 kts 173°
2026-05-03 22:47 31.96041 -83.76855 34863 ft 485 kts 173°
2026-05-03 22:48 31.89523 -83.74533 34961 ft 488 kts 173°
2026-05-03 22:48 31.83044 -83.72229 35066 ft 491 kts 173°
2026-05-03 22:49 31.76526 -83.69913 35067 ft 492 kts 173°
2026-05-03 22:49 31.69932 -83.67506 35064 ft 499 kts 171°
2026-05-03 22:50 31.63416 -83.64514 35076 ft 506 kts 167°
2026-05-03 22:50 31.56900 -83.61324 35079 ft 508 kts 167°
2026-05-03 22:50 31.53680 -83.59744 35258 ft 507 kts 167°
2026-05-03 22:51 31.50390 -83.58130 35143 ft 505 kts 167°
2026-05-03 22:51 31.43921 -83.54967 35116 ft 506 kts 167°
2026-05-03 22:52 31.37463 -83.51812 35106 ft 504 kts 167°
2026-05-03 22:52 31.30970 -83.48647 35101 ft 504 kts 167°
2026-05-03 22:53 31.26551 -83.46494 35092 ft 504 kts 167°
2026-05-03 22:53 31.20034 -83.43327 35088 ft 505 kts 167°
2026-05-03 22:54 31.13572 -83.40186 35083 ft 503 kts 167°
2026-05-03 22:54 31.07115 -83.37051 35086 ft 503 kts 167°
2026-05-03 22:55 31.00664 -83.33925 35089 ft 503 kts 168°
2026-05-03 22:55 30.94255 -83.30790 35096 ft 502 kts 167°
2026-05-03 22:56 30.87789 -83.27647 35099 ft 501 kts 168°
2026-05-03 22:56 30.81348 -83.24541 35087 ft 502 kts 168°
2026-05-03 22:57 30.74849 -83.21416 35086 ft 502 kts 168°
2026-05-03 22:57 30.68354 -83.18295 35086 ft 502 kts 168°
2026-05-03 22:58 30.61885 -83.15189 35072 ft 502 kts 168°
2026-05-03 22:58 30.55418 -83.12091 35072 ft 503 kts 168°
2026-05-03 22:59 30.48955 -83.08995 35058 ft 503 kts 168°
2026-05-03 22:59 30.42510 -83.05916 35048 ft 503 kts 168°
2026-05-03 23:00 30.36040 -83.02827 35049 ft 504 kts 168°
2026-05-03 23:00 30.29553 -82.99737 35050 ft 504 kts 168°
2026-05-03 23:01 30.23027 -82.96632 35042 ft 505 kts 168°
2026-05-03 23:01 30.16556 -82.93553 35040 ft 506 kts 168°
2026-05-03 23:02 30.10022 -82.90455 35032 ft 506 kts 168°
2026-05-03 23:02 30.03539 -82.87380 35038 ft 505 kts 168°
2026-05-03 23:03 29.97023 -82.84298 35041 ft 506 kts 168°
2026-05-03 23:03 29.90515 -82.81223 35016 ft 505 kts 168°
2026-05-03 23:04 29.84033 -82.78166 35022 ft 503 kts 169°
2026-05-03 23:04 29.77559 -82.75124 35021 ft 505 kts 169°
2026-05-03 23:05 29.71044 -82.72063 35030 ft 505 kts 169°
2026-05-03 23:05 29.64523 -82.69000 35028 ft 506 kts 169°
2026-05-03 23:06 29.57991 -82.65933 35031 ft 505 kts 169°
2026-05-03 23:06 29.51499 -82.62891 35015 ft 505 kts 169°
2026-05-03 23:07 29.44997 -82.59852 35035 ft 505 kts 169°
2026-05-03 23:07 29.38480 -82.56805 35014 ft 505 kts 169°
2026-05-03 23:08 29.31964 -82.53765 35022 ft 504 kts 169°
2026-05-03 23:08 29.25589 -82.50792 35027 ft 504 kts 169°
2026-05-03 23:09 29.19438 -82.47932 35037 ft 505 kts 169°
2026-05-03 23:09 29.12771 -82.44833 35027 ft 504 kts 169°
2026-05-03 23:10 29.06298 -82.41828 35036 ft 505 kts 169°
2026-05-03 23:10 28.99799 -82.38818 35028 ft 504 kts 169°
2026-05-03 23:11 28.93295 -82.35805 35037 ft 502 kts 169°
2026-05-03 23:11 28.86818 -82.32797 35046 ft 502 kts 170°
2026-05-03 23:12 28.80340 -82.29786 35036 ft 503 kts 170°
2026-05-03 23:12 28.73946 -82.26811 35038 ft 488 kts 170°
2026-05-03 23:13 28.67654 -82.23910 35033 ft 487 kts 170°
2026-05-03 23:13 28.61384 -82.21036 35018 ft 488 kts 171°
2026-05-03 23:14 28.55094 -82.18150 35018 ft 489 kts 170°
2026-05-03 23:14 28.48797 -82.15264 35010 ft 488 kts 170°
2026-05-03 23:15 28.42483 -82.12371 35018 ft 488 kts 170°
2026-05-03 23:15 28.36220 -82.09505 35013 ft 486 kts 170°
2026-05-03 23:16 28.29890 -82.06616 35025 ft 489 kts 170°
2026-05-03 23:16 28.23583 -82.03743 35026 ft 489 kts 170°
2026-05-03 23:17 28.17273 -82.00865 35034 ft 489 kts 170°
2026-05-03 23:17 28.10906 -81.97968 35027 ft 492 kts 170°
2026-05-03 23:18 28.04555 -81.95081 35035 ft 491 kts 170°
2026-05-03 23:18 27.98196 -81.92193 35034 ft 490 kts 170°
2026-05-03 23:19 27.91771 -81.89284 35038 ft 492 kts 169°
2026-05-03 23:19 27.85297 -81.86356 35041 ft 490 kts 170°
2026-05-03 23:20 27.78811 -81.83428 35036 ft 492 kts 169°
2026-05-03 23:20 27.72485 -81.80577 35022 ft 492 kts 169°
2026-05-03 23:21 27.66099 -81.77697 35026 ft 494 kts 169°
2026-05-03 23:21 27.59667 -81.74797 35017 ft 491 kts 169°
2026-05-03 23:22 27.50079 -81.70485 35014 ft 492 kts 169°
2026-05-03 23:22 27.43631 -81.67592 35019 ft 494 kts 169°
2026-05-03 23:23 27.37232 -81.64722 35022 ft 492 kts 169°
2026-05-03 23:23 27.30875 -81.61875 35019 ft 494 kts 169°
2026-05-03 23:24 27.24479 -81.59011 35023 ft 494 kts 168°
2026-05-03 23:24 27.18018 -81.56126 35016 ft 494 kts 168°
2026-05-03 23:25 27.11450 -81.53194 35022 ft 492 kts 168°
2026-05-03 23:25 27.04991 -81.50311 35024 ft 493 kts 169°
2026-05-03 23:26 26.98499 -81.47425 35017 ft 495 kts 169°
2026-05-03 23:26 26.92088 -81.44575 35018 ft 494 kts 168°
2026-05-03 23:27 26.85644 -81.41713 35016 ft 493 kts 168°
2026-05-03 23:27 26.79250 -81.38886 35008 ft 494 kts 168°
2026-05-03 23:28 26.72838 -81.36048 35010 ft 496 kts 168°
2026-05-03 23:28 26.66389 -81.33179 35004 ft 497 kts 168°
2026-05-03 23:29 26.59921 -81.30288 34998 ft 497 kts 168°
2026-05-03 23:29 26.53496 -81.27441 35003 ft 496 kts 168°
2026-05-03 23:30 26.47077 -81.24608 34990 ft 496 kts 168°
2026-05-03 23:30 26.40638 -81.21770 34996 ft 497 kts 167°
2026-05-03 23:31 26.37447 -81.20118 34975 ft 508 kts 159°
2026-05-03 23:31 26.34498 -81.17902 34983 ft 520 kts 149°
2026-05-03 23:31 26.31841 -81.15117 34982 ft 533 kts 139°
2026-05-03 23:31 26.29582 -81.11811 34982 ft 545 kts 129°
2026-05-03 23:32 26.27809 -81.08022 34978 ft 557 kts 118°
2026-05-03 23:32 26.26639 -81.03909 34994 ft 564 kts 107°
2026-05-03 23:32 26.25223 -80.95255 34995 ft 568 kts 103°
2026-05-03 23:33 26.23909 -80.86604 34987 ft 568 kts 104°
2026-05-03 23:33 26.22532 -80.77992 34992 ft 565 kts 104°
2026-05-03 23:34 26.21111 -80.69406 34996 ft 566 kts 105°
2026-05-03 23:34 26.19674 -80.60825 34992 ft 566 kts 105°
2026-05-03 23:35 26.18243 -80.52308 34580 ft 566 kts 104°
2026-05-03 23:35 26.17513 -80.47972 33707 ft 565 kts 104°
2026-05-03 23:35 26.16798 -80.43707 32867 ft 565 kts 104°
2026-05-03 23:36 26.16078 -80.39449 32116 ft 564 kts 104°
2026-05-03 23:36 26.15352 -80.35164 31370 ft 564 kts 104°
2026-05-03 23:36 26.14629 -80.30883 30608 ft 563 kts 104°
2026-05-03 23:36 26.13910 -80.26620 29862 ft 561 kts 104°
2026-05-03 23:37 26.13188 -80.22347 29094 ft 560 kts 104°
2026-05-03 23:37 26.12471 -80.18115 28347 ft 557 kts 104°
2026-05-03 23:37 26.11731 -80.13779 27585 ft 555 kts 104°
2026-05-03 23:37 26.11008 -80.09554 26845 ft 553 kts 104°
2026-05-03 23:38 26.10291 -80.05376 26173 ft 549 kts 104°
2026-05-03 23:38 26.09579 -80.01235 25544 ft 544 kts 104°
2026-05-03 23:38 26.08873 -79.97134 24840 ft 542 kts 104°
2026-05-03 23:38 26.08169 -79.93037 24565 ft 535 kts 104°
2026-05-03 23:39 26.07468 -79.88983 24308 ft 534 kts 104°
2026-05-03 23:39 26.06769 -79.84948 24064 ft 533 kts 104°
2026-05-03 23:39 26.06076 -79.80948 23823 ft 531 kts 104°
2026-05-03 23:39 26.05379 -79.76933 23585 ft 529 kts 104°
2026-05-03 23:40 26.04559 -79.72969 23315 ft 523 kts 112°
2026-05-03 23:40 26.02879 -79.69428 23066 ft 509 kts 132°
2026-05-03 23:40 26.00387 -79.66769 22818 ft 491 kts 152°
2026-05-03 23:40 25.97361 -79.65210 22579 ft 472 kts 171°
2026-05-03 23:41 25.94169 -79.64723 22340 ft 458 kts 185°
2026-05-03 23:41 25.91061 -79.65093 22106 ft 447 kts 198°
2026-05-03 23:41 25.88161 -79.66211 21710 ft 438 kts 211°
2026-05-03 23:41 25.85617 -79.68006 21185 ft 425 kts 223°
2026-05-03 23:42 25.83592 -79.70317 20625 ft 417 kts 235°
2026-05-03 23:42 25.82107 -79.73043 19889 ft 414 kts 247°
2026-05-03 23:42 25.81231 -79.76063 19180 ft 413 kts 259°
2026-05-03 23:42 25.81002 -79.79198 18625 ft 409 kts 271°
2026-05-03 23:43 25.81404 -79.82288 17996 ft 408 kts 283°
2026-05-03 23:43 25.82432 -79.85216 17324 ft 411 kts 295°
2026-05-03 23:43 25.84057 -79.87833 16684 ft 413 kts 307°
2026-05-03 23:43 25.85967 -79.90235 16051 ft 412 kts 308°
2026-05-03 23:44 25.87861 -79.92567 15405 ft 410 kts 308°
2026-05-03 23:44 25.89765 -79.94900 14802 ft 407 kts 309°
2026-05-03 23:44 25.91653 -79.97216 14018 ft 401 kts 309°
2026-05-03 23:44 25.93482 -79.99464 13031 ft 385 kts 309°
2026-05-03 23:45 25.95236 -80.01619 12071 ft 373 kts 309°
2026-05-03 23:45 25.96845 -80.03600 11168 ft 365 kts 309°
2026-05-03 23:45 25.98495 -80.05639 10222 ft 358 kts 309°
2026-05-03 23:45 26.00134 -80.07664 9266 ft 353 kts 309°
2026-05-03 23:46 26.01752 -80.09667 8316 ft 348 kts 309°
2026-05-03 23:46 26.03352 -80.11646 7383 ft 343 kts 310°
2026-05-03 23:46 26.04926 -80.13590 6640 ft 333 kts 310°
2026-05-03 23:46 26.06437 -80.15478 5915 ft 323 kts 306°
2026-05-03 23:47 26.07426 -80.17649 5170 ft 313 kts 278°
2026-05-03 23:47 26.07499 -80.19976 4742 ft 297 kts 269°
2026-05-03 23:47 26.07492 -80.22214 4527 ft 277 kts 270°
2026-05-03 23:47 26.07515 -80.24262 4502 ft 254 kts 271°
2026-05-03 23:48 26.07544 -80.26204 4494 ft 253 kts 271°
2026-05-03 23:48 26.07578 -80.28163 4364 ft 253 kts 271°
2026-05-03 23:48 26.07612 -80.30112 4243 ft 252 kts 271°
2026-05-03 23:48 26.07647 -80.32055 4122 ft 252 kts 271°
2026-05-03 23:49 26.07681 -80.33991 4011 ft 248 kts 271°
2026-05-03 23:49 26.07715 -80.35829 4000 ft 227 kts 274°
2026-05-03 23:49 26.08066 -80.37483 4004 ft 219 kts 299°
2026-05-03 23:49 26.09042 -80.38771 4000 ft 219 kts 324°
2026-05-03 23:50 26.10421 -80.39506 4000 ft 221 kts 347°
2026-05-03 23:50 26.11437 -80.39618 4079 ft 224 kts
2026-05-03 23:50 26.13468 -80.39033 4137 ft 230 kts 19°
2026-05-03 23:50 26.15010 -80.38760 4052 ft 223 kts 348°
2026-05-03 23:51 26.16409 -80.39442 4037 ft 218 kts 319°
2026-05-03 23:51 26.17510 -80.40600 4025 ft 219 kts 310°
2026-05-03 23:51 26.18248 -80.42057 4004 ft 217 kts 280°
2026-05-03 23:51 26.18262 -80.43729 4013 ft 219 kts 264°
2026-05-03 23:52 26.18002 -80.45397 3998 ft 220 kts 250°
2026-05-03 23:52 26.17118 -80.46750 3996 ft 221 kts 216°
2026-05-03 23:52 26.15687 -80.47341 4006 ft 221 kts 188°
2026-05-03 23:52 26.14154 -80.47419 4003 ft 217 kts 182°
2026-05-03 23:53 26.12649 -80.47387 4003 ft 217 kts 180°
2026-05-03 23:53 26.11138 -80.47330 4001 ft 217 kts 180°
2026-05-03 23:53 26.09624 -80.47214 3989 ft 217 kts 166°
2026-05-03 23:53 26.08346 -80.46375 3982 ft 217 kts 129°
2026-05-03 23:54 26.07725 -80.44872 3862 ft 217 kts 97°
2026-05-03 23:54 26.07678 -80.43188 3724 ft 216 kts 87°
2026-05-03 23:54 26.07761 -80.41540 3576 ft 211 kts 86°
2026-05-03 23:54 26.07824 -80.39922 3423 ft 210 kts 88°
2026-05-03 23:55 26.07841 -80.38310 3339 ft 206 kts 89°
2026-05-03 23:55 26.07845 -80.36733 3193 ft 203 kts 89°
2026-05-03 23:55 26.07838 -80.35211 3068 ft 190 kts 89°
2026-05-03 23:55 26.07825 -80.33777 3023 ft 183 kts 89°
2026-05-03 23:56 26.07811 -80.32362 3013 ft 183 kts 89°
2026-05-03 23:56 26.07797 -80.30939 2853 ft 185 kts 89°
2026-05-03 23:56 26.07784 -80.29522 2520 ft 183 kts 88°
2026-05-03 23:56 26.07771 -80.28114 2184 ft 180 kts 89°
2026-05-03 23:57 26.07760 -80.26748 1883 ft 175 kts 88°
2026-05-03 23:57 26.07750 -80.25410 1602 ft 170 kts 88°
2026-05-03 23:57 26.07742 -80.24125 1303 ft 163 kts 88°
2026-05-03 23:57 26.07733 -80.22892 1008 ft 157 kts 88°
2026-05-03 23:58 26.07726 -80.21699 707 ft 151 kts 89°
2026-05-03 23:58 26.07718 -80.20561 479 ft 147 kts 88°
2026-05-03 23:58 26.07712 -80.19403 363 ft 149 kts 89°
2026-05-03 23:58 26.07668 -80.18351 1002 ft 120 kts 88°
2026-05-03 23:59 26.07679 -80.17509 1584 ft 119 kts 89°
2026-05-03 23:59 26.07713 -80.16531 1970 ft 131 kts 76°
2026-05-03 23:59 26.07918 -80.15576 2502 ft 133 kts 65°
2026-05-03 23:59 26.08005 -80.14584 3112 ft 129 kts 94°
2026-05-04 00:00 26.07821 -80.13639 3603 ft 137 kts 108°
2026-05-04 00:00 26.07362 -80.12633 3996 ft 151 kts 137°
2026-05-04 00:00 26.06671 -80.11802 4606 ft 157 kts 141°
2026-05-04 00:00 26.05573 -80.11099 4240 ft 226 kts 161°
2026-05-04 00:01 26.03756 -80.10774 2795 ft 292 kts 173°
2026-05-04 00:01 26.01857 -80.10501 3337 ft 255 kts 165°
2026-05-04 00:01 26.00340 -80.09917 3834 ft 231 kts 158°
2026-05-04 00:01 25.98672 -80.09132 3637 ft 264 kts 159°
2026-05-04 00:02 25.97035 -80.08462 3865 ft 247 kts 162°
2026-05-04 00:02 25.95400 -80.07888 3756 ft 241 kts 162°
2026-05-04 00:02 25.93877 -80.07288 3827 ft 226 kts 160°
2026-05-04 00:02 25.92449 -80.06715 4012 ft 202 kts 162°
2026-05-04 00:03 25.91192 -80.06258 4159 ft 181 kts 165°
2026-05-04 00:03 25.89944 -80.06032 3726 ft 194 kts 191°
2026-05-04 00:03 25.88677 -80.06863 3416 ft 222 kts 238°
2026-05-04 00:03 25.88357 -80.08440 3345 ft 207 kts 282°
2026-05-04 00:04 25.88832 -80.09819 3521 ft 182 kts 299°
2026-05-04 00:04 25.89532 -80.10939 3450 ft 174 kts 310°
2026-05-04 00:04 25.90403 -80.11921 3018 ft 186 kts 320°
2026-05-04 00:04 25.91474 -80.12820 3097 ft 198 kts 324°
2026-05-04 00:05 25.92491 -80.13711 3975 ft 179 kts 317°
2026-05-04 00:05 25.93369 -80.14618 4511 ft 179 kts 314°
2026-05-04 00:05 25.94315 -80.15746 3909 ft 223 kts 304°
2026-05-04 00:05 25.95100 -80.17357 3463 ft 245 kts 288°
2026-05-04 00:06 25.95585 -80.19061 4009 ft 215 kts 295°
2026-05-04 00:06 25.96194 -80.20469 4323 ft 196 kts 300°
2026-05-04 00:06 25.96885 -80.21787 4119 ft 208 kts 301°
2026-05-04 00:06 25.97714 -80.23182 3870 ft 221 kts 303°
2026-05-04 00:07 25.98547 -80.24644 3671 ft 227 kts 300°
2026-05-04 00:07 25.99343 -80.26169 3503 ft 230 kts 301°
2026-05-04 00:07 26.00003 -80.27792 3404 ft 226 kts 283°
2026-05-04 00:07 26.00452 -80.29442 3379 ft 219 kts 289°
2026-05-04 00:08 26.01175 -80.30921 3227 ft 223 kts 320°
2026-05-04 00:08 26.02619 -80.31598 2674 ft 242 kts
2026-05-04 00:08 26.03987 -80.30645 2480 ft 240 kts 72°
2026-05-04 00:08 26.03763 -80.29020 3803 ft 222 kts 127°
2026-05-04 00:09 26.02565 -80.28046 3976 ft 217 kts 173°